Home > Weather > Zug > Past weeks

Flag for Switzerland Past Weather in Zug, Zug, Switzerland — Yesterday and Last 2 Weeks

Now
73 °F

Mild.


Feels Like: 74 °F
Forecast: 62 / 88 °F
Wind: 2 mph from Southwest

Location: Zuerich-Fluntern

Current Time: Aug 25, 2016 at 11:58:50 AM

Latest Report: Aug 25, 2016 at 11:00 AM


Visibility: N/A

Pressure: 30.07 "Hg

Humidity: 73%

Dew Point: 64 °F

Location of ZugLocation

Past Weather in Zug — Graph

°F

Zug Temperature Yesterday

Maximum temperature yesterday: 81 °F (at 5:00 PM)
Minimum temperature yesterday: 59 °F (at 6:00 AM)
Average temperature yesterday: 69 °F

High & Low Weather Summary for the Past Weeks

 TemperatureHumidityPressure
High83 °F (Aug 14, 5:00 PM)97% (Aug 18, 6:00 PM)30.39 "Hg (Aug 18, 6:00 PM)
Low49 °F (Aug 11, 7:00 AM)39% (Aug 10, 3:00 PM)29.80 "Hg (Aug 17, 6:00 PM)
Average65 °F74%30.12 "Hg
* Reported Aug 10 10:00 AM — Aug 25 10:00 AM, Zug, Weather by CustomWeather, © 2016

Note: Actual official high and low records may vary slightly from our data, if they occured in-between our weather recording intervals... More about our weather records

Advertising

Zug Weather History for the Previous 24 Hours

Scroll right to see more
 ConditionsComfort  
Time TempWeatherWind HumidityBarometerVisibility
10:00 AM
Thu, Aug 25
68 °FMild.1 mph77%30.09 "HgN/A
9:00 AM65 °FMild.1 mph83%30.11 "HgN/A
8:00 AM62 °FSunny.No wind89%30.12 "HgN/A
7:00 AM60 °FCool.3 mph92%30.11 "HgN/A
6:00 AM61 °FCool.2 mph91%30.10 "HgN/A
5:00 AM61 °FCool.2 mph89%30.10 "HgN/A
4:00 AM62 °FCool.2 mph88%30.10 "HgN/A
3:00 AM63 °FMild.6 mph86%30.09 "HgN/A
2:00 AM66 °FMild.6 mph80%30.09 "HgN/A
1:00 AM66 °FMild.7 mph80%30.09 "HgN/A
12:00 AM69 °FMild.9 mph74%30.10 "HgN/A
11:00 PM
Wed, Aug 24
69 °FMild.7 mph73%30.10 "HgN/A
10:00 PM70 °FMild.6 mph74%30.11 "HgN/A
9:00 PM71 °FMild.3 mph74%30.11 "HgN/A
8:00 PM75 °FMild.2 mph67%30.08 "HgN/A
7:00 PM80 °FWarm.5 mph55%30.06 "HgN/A
6:00 PM80 °FWarm.5 mph55%30.08 "HgN/A
5:00 PM81 °FWarm.6 mph54%30.08 "HgN/A
4:00 PM80 °FWarm.5 mph52%30.09 "HgN/A
3:00 PM80 °FWarm.3 mph59%30.11 "HgN/A
2:00 PM78 °FWarm.3 mph58%30.12 "HgN/A
1:00 PM76 °FMild.5 mph58%30.14 "HgN/A
12:00 PM73 °FMild.2 mph65%30.16 "HgN/A
11:00 AM70 °FMild.1 mph71%30.19 "HgN/A
Weather by CustomWeather, © 2016

See weather overviewHow to use our weather pages